Terug naar catalogus

STARLINK-37757

ActiefCommunicatieVLEO
NORAD 69244·PAYLOAD·🇺🇸 United States

Gelanceerd May 29, 2026 vanaf Cape Canaveral Space Force Station

Loading…

Volgende Passages (komende 24 uur)

TLE

VersSource: CelesTrak SupGP

Epoch: Sep 14, 2026, 21:10 UTC

1 69244C 26117G   26257.88243056 -.00010155  00000+0 -29984-3 0  2575
2 69244  53.1567 179.9647 0001188 104.0399 311.1373 15.34415849    15

Volg STARLINK-37757 in realtime met AllMySat

Download on the App Store